Meteo Giornale » Osservazioni meteo Gran Bretagna » Londra City AP

ore: 16:50 - Osservazioni Meteo Londra City AP
Lat. 51° 30' N Lon. 0° 30' W Alt. 5 metri s.l.m.

molto_nuvoloso Europe/London

15 °C

Molto Nuvoloso

Temp. 24 Ore

11 °C

16 °C

Nord

11.1 Km/h

Dew point 8 °C

Umidità 62 %

Visibilità  10 Km

Il sole sorge alle ore 07:30

Il sole tramonta alle ore 18:03

Data e Ora Cielo e Fenomeni T °C DP °C Um. % Pres. hPa Vis. km Vento km/h
Oggi h: 16:50 molto_nuvoloso Molto Nuvoloso 15 8 62 1026 10 N 11.1
Oggi h: 16:20 molto_nuvoloso Molto Nuvoloso 16 7 55 1026 10 E/NE 14.8
Oggi h: 15:50 nuvoloso Nuvoloso 16 8 58 1026 10 E 13
Oggi h: 15:20 molto_nuvoloso Molto Nuvoloso 16 8 58 1026 10 E 14.8
Oggi h: 14:50 molto_nuvoloso Molto Nuvoloso 16 8 58 1026 10 E/NE 16.7
Oggi h: 14:20 poco_nuvoloso Poco Nuvoloso 16 8 58 1027 10 E/NE 16.7
Oggi h: 12:50 molto_nuvoloso Molto Nuvoloso 16 8 58 1027 10 E/NE 14.8
Oggi h: 12:20 poco_nuvoloso Poco Nuvoloso 15 8 62 1027 10 E/NE 18.5
Oggi h: 11:50 sereno Sereno 15 9 67 1027 10 E/NE 14.8
Oggi h: 11:20 sereno Sereno 14 9 71 1027 10 E/NE 13
Oggi h: 10:50 sereno Sereno 14 9 71 1027 10 NE 11.1
Oggi h: 10:20 sereno Sereno 13 10 81 1027 10 N 11.1
Oggi h: 09:50 sereno Sereno 12 10 87 1027 10 E/NE 14.8
Oggi h: 09:20 sereno Sereno 12 10 87 1027 10 NE 9.3
Oggi h: 08:50 nuvoloso Nuvoloso 11 10 93 1027 10 N 7.4
Oggi h: 08:20 coperto Coperto 11 10 93 1026 9 N/NE 9.3
Oggi h: 07:50 coperto Coperto 11 10 93 1026 9 NE 9.3
Oggi h: 07:20 coperto Coperto 11 10 93 1026 8 NE 7.4
Oggi h: 06:50 coperto Coperto 11 9 87 1026 8 N 3.7
Oggi h: 06:20 nuvoloso Nuvoloso 11 9 87 1026 8 N 5.5
Oggi h: 05:50 sereno Sereno 11 9 87 1025 10 N 3.7
Oggi h: 05:20 sereno Sereno 12 9 81 1025 10 N 7.4
Oggi h: 04:50 sereno Sereno 12 10 87 1025 10 N 9.3
Oggi h: 04:20 sereno Sereno 12 10 87 1025 10 N 5.5
Oggi h: 03:50 sereno Sereno 13 10 81 1025 10 N 5.5
Oggi h: 03:20 sereno Sereno 13 10 81 1025 10 N 7.4
Oggi h: 02:50 sereno Sereno 13 10 81 1025 10 N 5.5
Oggi h: 02:20 sereno Sereno 13 10 81 1025 10 N 3.7
Oggi h: 01:50 sereno Sereno 13 11 87 1025 10 N 5.5
Oggi h: 01:20 sereno Sereno 13 11 87 1025 9 N 5.5
Oggi h: 00:50 sereno Sereno 13 11 87 1025 9 N 5.5
Oggi h: 00:20 sereno Sereno 14 12 87 1024 10 N 5.5
Ieri h: 23:50 sereno Sereno 14 12 87 1024 10 N 5.5
Ieri h: 23:20 sereno Sereno 14 12 87 1024 10 N 5.5
Ieri h: 22:50 sereno Sereno 14 12 87 1024 10 N 7.4
Ieri h: 22:20 sereno Sereno 14 12 87 1023 10 N 5.5
Ieri h: 21:50 sereno Sereno 14 13 93 1023 10 N 3.7
Ieri h: 21:20 molto_nuvoloso Molto Nuvoloso 14 13 93 1023 10 N 3.7
Ieri h: 20:50 sereno Sereno 14 13 93 1023 10 N 1.8
Ieri h: 20:20 nuvoloso Nuvoloso 14 13 93 1022 10 N 3.7
Ieri h: 19:50 poco_nuvoloso Poco Nuvoloso 15 13 87 1022 10 N 3.7
Ieri h: 19:20 poco_nuvoloso Poco Nuvoloso 15 13 87 1021 10 N 1.8
Ieri h: 18:50 poco_nuvoloso Poco Nuvoloso 15 13 87 1021 10 N 3.7
Ieri h: 18:20 coperto Coperto 15 13 87 1021 10 N 3.7